This demonstration page uses our WeatherBlox Daily Observations layout. Learn more.

Left ArrowRight Arrow

40.92501, -98.34201

Hourly Observations for October 13, 2018

Temp ( °F °C ) Dew Point ( °F °C ) Humidity (%) Winds ( mph kmh ) Pressure ( in mb ) Visibility ( mi km ) Precip ( " mm )
12:53 am 00:53 Clear 37 2.8 34 1.1 89 89 SSE 7 11 29.94 1014 10 16 0.00 0.00
1:53 am 01:53 Clear 36 2.2 34 1.1 93 93 S 8 13 29.92 1013 10 16 0.00 0.00
2:53 am 02:53 Clear 41 5 37 2.8 86 86 SSW 12 19 29.91 1013 10 16 0.00 0.00
3:53 am 03:53 Clear 41 5 37 2.8 86 86 SSW 10 17 29.89 1012 10 16 0.00 0.00
4:53 am 04:53 Clear 41 5 38 3.3 89 89 SSW 13 20 29.87 1012 10 16 0.00 0.00
5:53 am 05:53 Clear 43 6.1 39 3.9 86 86 SSW 14 22 29.86 1011 10 16 0.00 0.00
6:53 am 06:53 Clear 42 5.6 39 3.9 89 89 SSW 8 13 29.87 1012 10 16 0.00 0.00
7:53 am 07:53 Sunny 41 5 39 3.9 93 93 SSW 10 17 29.87 1011 10 16 0.00 0.00
8:53 am 08:53 Sunny 44 6.7 40 4.4 85 85 SSW 15 24 29.86 1011 10 16 0.00 0.00
9:53 am 09:53 Sunny 50 10 43 6.1 77 77 SSW 10 17 29.86 1011 10 16 0.00 0.00
10:53 am 10:53 Mostly Sunny 54 12.2 44 6.7 69 69 SW 15 24 29.87 1012 10 16 0.00 0.00
11:53 am 11:53 Cloudy 57 13.9 44 6.7 62 62 WSW 12 19 29.87 1011 10 16 0.00 0.00
12:53 pm 12:53 Cloudy 59 15 45 7.2 60 60 SW 15 24 29.84 1011 10 16 0.00 0.00
1:53 pm 13:53 Cloudy 63 17.2 46 7.8 54 54 SW 17 28 29.81 1010 10 16 0.00 0.00
2:53 pm 14:53 Mostly Cloudy 64 17.8 47 8.3 54 54 WSW 12 19 29.78 1008 10 16 0.00 0.00
3:53 pm 15:53 Mostly Cloudy 66 18.9 48 8.9 52 52 SSE 10 17 29.76 1008 10 16 0.00 0.00
4:53 pm 16:53 Cloudy 65 18.3 47 8.3 52 52 SSW 6 9 29.75 1008 10 16 0.00 0.00
5:53 pm 17:53 Cloudy with Light Rain 53 11.7 50 10 89 89 N 14 22 29.81 1010 10 16 0.06 1.52
6:53 pm 18:53 Cloudy with Light Rain 50 10 46 7.8 86 86 NNE 13 20 29.85 1011 6 10 0.06 1.52
7:53 pm 19:53 Cloudy 49 9.4 45 7.2 86 86 NE 9 15 29.88 1012 10 16 0.02 0.51
8:53 pm 20:53 Cloudy 49 9.4 44 6.7 83 83 NNE 3 6 29.90 1013 10 16 0.00 0.00
9:53 pm 21:53 Cloudy 48 8.9 44 6.7 86 86 NNE 12 19 29.91 1013 10 16 0.00 0.03
10:42 pm 22:42 Cloudy 48 8.9 44 6.7 86 86 NNE 15 24 29.91 1013 10 16 0.00 0.00
10:53 pm 22:53 Cloudy 47 8.3 44 6.7 90 90 N 9 15 29.94 1014 10 16 0.00 0.00
11:23 pm 23:23 Cloudy 45 7.2 42 5.6 90 90 NNE 17 28 29.94 1014 10 16 0.00 0.00
11:53 pm 23:53 Cloudy with Light Rain 44 6.7 41 5 89 89 NNE 15 24 29.94 1014 10 16 0.00 0.03

Powered by Vaisala Xweather